Regional Weather Roundup
Issued by NWS Cleveland, OH

Home | Current Version | Previous Version | Text Only | Print | Product List | Glossary Off
Versions: 1 2 3 4 5 6 7 8 9 10 11 12 13 14 15 16 17 18 19 20 21 22 23 24 25 26 27 28 29 30 31 32 33 34 35 36 37 38 39 40 41 42 43 44 45 46 47 48 49 50

357
ASUS41 KCLE 251710
RWRCLE
OHIO REGIONAL WEATHER ROUNDUP
NATIONAL WEATHER SERVICE WILMINGTON, OH
1200 PM EST SUN FEB 25 2018

NOTE: "FAIR" INDICATES FEW OR NO CLOUDS BELOW 12,000 FEET WITH NO
SIGNIFICANT WEATHER AND/OR OBSTRUCTIONS TO VISIBILITY.

OHZ001>008-015>018-024>027-034-035-043-044-251800-
   NORTHWEST OHIO

CITY           SKY/WX    TMP DP  RH WIND       PRES   REMARKS
DEFIANCE       CLOUDY    39  29  67 W20G29    29.95R
FINDLAY        FAIR      43  32  65 W26       29.94R
TOLEDO EXPRESS CLOUDY    41  31  67 W22G35    29.91R
TOLEDO EXEC    FAIR      42  30  62 W22G35    29.92R
LIMA           FAIR      41  36  82 W22       29.97R
$$

OHZ009>014-019>023-028>033-038-089-251800-
   NORTHEAST OHIO

CITY           SKY/WX    TMP DP  RH WIND       PRES   REMARKS
CLE-HOPKINS    PTSUNNY   49  38  65 SW17G30   29.90R
CLE-LAKEFRONT  FAIR      49  35  58 SW16G28   29.87R
CUY CO. ARPT   PTSUNNY   50  37  62 SW22G28   29.88R
LORAIN-ELYRIA  FAIR      45  33  63 W21G28    29.90R
ASHTABULA      FAIR      50  34  54 W21G26    29.85R
AKRON-CANTON   CLOUDY    49  32  52 W15G26    29.89R
WOOSTER        FAIR      47  37  68 W15       29.91R
MANSFIELD      FAIR      44  33  65 W15G23    29.93R
YOUNGSTOWN     CLOUDY    50  37  61 SW15G23   29.86R
$$

OHZ042-051>053-060>062-070>072-077>081-251800-
  SOUTHWEST OHIO

CITY           SKY/WX    TMP DP  RH WIND       PRES   REMARKS
CINC-COVINGTON CLOUDY    46  37  71 W10       30.05R
CINC-LUNKEN    FAIR      49  38  65 W13       30.06R
HAMILTON       FAIR      47  32  56 W13G20    30.06R
DAYTON         PTSUNNY   43  36  76 SW21      30.02R
WRIGHT-PAT AFB MOSUNNY   47  35  64 SW14G22   30.02R
DAYTON GENERAL FAIR      47  36  65 SW16      30.02R
WILMINGTON     FAIR      47  39  74 SW17      30.01R
$$

OHZ036-037-039>041-045>050-054>059-063>069-073>076-082>088-251800-
  CENTRAL AND SOUTHEAST OHIO

CITY           SKY/WX    TMP DP  RH WIND       PRES   REMARKS
COLUMBUS       PTSUNNY   48  37  65 SW13      29.98R
OSU AIRPORT    FAIR      47  38  71 SW17      29.98R
BOLTON FIELD   SUNNY     46  39  76 SW15      29.99R
RICKENBACK AFB FAIR      47  39  72 W16G22    29.99S
NEWARK         FAIR      50  39  66 SW10      29.97R
MARION         FAIR      44  34  67 W20G28    29.97R
LANCASTER      FAIR      48  39  71 W12       30.00R
ZANESVILLE     FAIR      51  38  60 W10       29.96R
NEW PHILLY     FAIR      52  36  54 W6        29.93R
$$




USA.gov is the U.S. government's official web portal to all federal, state and local government web resources and services.